Time,TemperatureF,DewpointF,PressureIn,WindDirection,WindDirectionDegrees,WindSpeedMPH,WindSpeedGustMPH,Humidity,HourlyPrecipIn,Conditions,Clouds,dailyrainin,SoftwareType,DateUTC
2013-04-18 00:01:00,33.8,32.8,30.01,NNE,33,5.0,7.0,96,0.00,,,0.00,Wunderground v.1.15,2013-04-18 05:01:00,
2013-04-18 00:07:00,33.8,32.8,30.01,NNE,15,3.0,11.0,96,0.00,,,0.00,Wunderground v.1.15,2013-04-18 05:07:00,
2013-04-18 00:13:00,33.8,32.8,30.01,ENE,77,8.0,8.0,96,0.00,,,0.00,Wunderground v.1.15,2013-04-18 05:13:00,
2013-04-18 00:18:00,33.8,32.8,30.01,NNE,26,3.0,8.0,96,0.00,,,0.00,Wunderground v.1.15,2013-04-18 05:18:00,
2013-04-18 00:24:00,33.8,32.8,30.00,NE,36,7.0,7.0,96,0.00,,,0.00,Wunderground v.1.15,2013-04-18 05:24:00,
2013-04-18 00:29:00,33.7,32.7,29.99,NNE,27,1.0,7.0,96,0.00,,,0.00,Wunderground v.1.15,2013-04-18 05:29:00,
2013-04-18 00:35:00,33.7,32.7,30.00,NNE,22,0.0,8.0,96,0.00,,,0.00,Wunderground v.1.15,2013-04-18 05:35:00,
2013-04-18 00:40:00,33.7,32.7,30.00,NE,53,6.0,8.0,96,0.00,,,0.00,Wunderground v.1.15,2013-04-18 05:40:00,
2013-04-18 00:45:00,33.7,32.9,29.99,NNE,19,4.0,8.0,97,0.00,,,0.00,Wunderground v.1.15,2013-04-18 05:45:00,
2013-04-18 00:52:00,33.6,32.8,29.99,NNE,15,4.0,4.0,97,0.00,,,0.00,Wunderground v.1.15,2013-04-18 05:52:00,
2013-04-18 00:57:00,33.6,32.8,29.99,NNE,15,4.0,7.0,97,0.00,,,0.00,Wunderground v.1.15,2013-04-18 05:57:00,
2013-04-18 01:02:00,33.6,32.8,29.99,North,360,5.0,5.0,97,0.00,,,0.00,Wunderground v.1.15,2013-04-18 06:02:00,
2013-04-18 01:08:00,33.5,32.7,29.98,NE,50,3.0,6.0,97,0.00,,,0.00,Wunderground v.1.15,2013-04-18 06:08:00,
2013-04-18 01:14:00,33.5,32.7,29.98,NNW,347,1.0,6.0,97,0.00,,,0.00,Wunderground v.1.15,2013-04-18 06:14:00,
2013-04-18 01:19:00,33.5,32.7,29.97,North,11,2.0,8.0,97,0.00,,,0.00,Wunderground v.1.15,2013-04-18 06:19:00,
2013-04-18 01:25:00,33.4,32.6,29.96,NNE,32,2.0,6.0,97,0.00,,,0.00,Wunderground v.1.15,2013-04-18 06:25:00,
2013-04-18 01:31:00,33.4,32.6,29.96,NNE,20,6.0,6.0,97,0.00,,,0.00,Wunderground v.1.15,2013-04-18 06:31:00,
2013-04-18 01:37:00,33.3,32.5,29.95,NNE,30,5.0,6.0,97,0.00,,,0.00,Wunderground v.1.15,2013-04-18 06:37:00,
2013-04-18 01:43:00,33.3,32.5,29.96,NE,38,2.0,4.0,97,0.00,,,0.00,Wunderground v.1.15,2013-04-18 06:43:00,
2013-04-18 01:49:00,33.2,32.4,29.95,ENE,73,5.0,6.0,97,0.00,,,0.00,Wunderground v.1.15,2013-04-18 06:49:00,
2013-04-18 01:55:00,33.2,32.4,29.93,NE,34,7.0,7.0,97,0.00,,,0.00,Wunderground v.1.15,2013-04-18 06:55:00,
2013-04-18 02:02:00,33.0,32.2,29.92,NNE,32,9.0,9.0,97,0.00,,,0.00,Wunderground v.1.15,2013-04-18 07:02:00,
2013-04-18 02:07:00,33.0,32.2,29.92,NE,55,5.0,10.0,97,0.00,,,0.00,Wunderground v.1.15,2013-04-18 07:07:00,
2013-04-18 02:12:00,32.9,32.1,29.91,NE,46,5.0,10.0,97,0.00,,,0.00,Wunderground v.1.15,2013-04-18 07:12:00,
2013-04-18 02:18:00,32.9,32.1,29.90,NNE,26,9.0,10.0,97,0.00,,,0.00,Wunderground v.1.15,2013-04-18 07:18:00,
2013-04-18 02:23:00,32.8,32.0,29.91,ENE,61,4.0,10.0,97,0.00,,,0.00,Wunderground v.1.15,2013-04-18 07:23:00,
2013-04-18 02:28:00,32.8,32.0,29.91,North,355,5.0,11.0,97,0.00,,,0.00,Wunderground v.1.15,2013-04-18 07:28:00,
2013-04-18 02:33:00,32.8,32.0,29.91,NNE,29,6.0,9.0,97,0.00,,,0.00,Wunderground v.1.15,2013-04-18 07:33:00,
2013-04-18 02:38:00,32.7,31.9,29.90,North,5,9.0,12.0,97,0.00,,,0.00,Wunderground v.1.15,2013-04-18 07:38:00,
2013-04-18 02:44:00,32.7,31.9,29.89,NE,44,5.0,8.0,97,0.00,,,0.00,Wunderground v.1.15,2013-04-18 07:44:00,
2013-04-18 02:49:00,32.7,31.9,29.89,NE,35,7.0,14.0,97,0.00,,,0.00,Wunderground v.1.15,2013-04-18 07:49:00,
2013-04-18 02:54:00,32.7,31.9,29.89,NNE,25,5.0,10.0,97,0.00,,,0.00,Wunderground v.1.15,2013-04-18 07:54:00,
2013-04-18 02:59:00,32.6,31.8,29.90,NNE,22,7.0,11.0,97,0.00,,,0.00,Wunderground v.1.15,2013-04-18 07:59:00,
2013-04-18 03:04:00,32.6,31.8,29.90,NNE,32,10.0,13.0,97,0.00,,,0.00,Wunderground v.1.15,2013-04-18 08:04:00,
2013-04-18 03:09:00,32.6,31.6,29.90,ENE,61,4.0,14.0,96,0.00,,,0.00,Wunderground v.1.15,2013-04-18 08:09:00,
2013-04-18 03:14:00,32.6,31.6,29.91,NNE,18,6.0,10.0,96,0.00,,,0.00,Wunderground v.1.15,2013-04-18 08:14:00,
2013-04-18 03:19:00,32.6,31.6,29.91,North,5,5.0,10.0,96,0.00,,,0.00,Wunderground v.1.15,2013-04-18 08:19:00,
2013-04-18 03:24:00,32.6,31.6,29.90,NE,41,5.0,13.0,96,0.00,,,0.00,Wunderground v.1.15,2013-04-18 08:24:00,
2013-04-18 03:30:00,32.7,31.7,29.90,NNE,22,4.0,13.0,96,0.00,,,0.00,Wunderground v.1.15,2013-04-18 08:30:00,
2013-04-18 03:35:00,32.6,31.6,29.90,NNE,30,4.0,11.0,96,0.00,,,0.00,Wunderground v.1.15,2013-04-18 08:35:00,
2013-04-18 03:40:00,32.6,31.6,29.90,NE,55,3.0,11.0,96,0.00,,,0.00,Wunderground v.1.15,2013-04-18 08:40:00,
2013-04-18 03:45:00,32.6,31.6,29.90,North,5,2.0,12.0,96,0.00,,,0.00,Wunderground v.1.15,2013-04-18 08:45:00,
2013-04-18 03:50:00,32.6,31.6,29.89,NE,43,6.0,12.0,96,0.00,,,0.00,Wunderground v.1.15,2013-04-18 08:50:00,
2013-04-18 03:55:00,32.6,31.6,29.89,NE,53,2.0,6.0,96,0.00,,,0.00,Wunderground v.1.15,2013-04-18 08:55:00,
2013-04-18 04:01:00,32.6,31.6,29.89,East,96,4.0,10.0,96,0.00,,,0.00,Wunderground v.1.15,2013-04-18 09:01:00,
2013-04-18 04:06:00,32.5,31.5,29.88,NNE,20,4.0,8.0,96,0.00,,,0.00,Wunderground v.1.15,2013-04-18 09:06:00,
2013-04-18 04:11:00,32.5,31.5,29.89,NE,43,5.0,5.0,96,0.00,,,0.00,Wunderground v.1.15,2013-04-18 09:11:00,
2013-04-18 04:17:00,32.5,31.5,29.88,NNE,17,7.0,9.0,96,0.00,,,0.00,Wunderground v.1.15,2013-04-18 09:17:00,
2013-04-18 04:22:00,32.5,31.5,29.89,North,5,2.0,7.0,96,0.00,,,0.00,Wunderground v.1.15,2013-04-18 09:22:00,
2013-04-18 04:27:00,32.4,31.4,29.89,NNW,333,2.0,7.0,96,0.00,,,0.00,Wunderground v.1.15,2013-04-18 09:27:00,
2013-04-18 04:32:00,32.4,31.4,29.89,NNE,30,8.0,12.0,96,0.00,,,0.00,Wunderground v.1.15,2013-04-18 09:32:00,
2013-04-18 04:37:00,32.3,31.3,29.89,North,5,0.0,12.0,96,0.00,,,0.00,Wunderground v.1.15,2013-04-18 09:37:00,
2013-04-18 04:42:00,32.3,31.3,29.89,NNE,21,5.0,5.0,96,0.00,,,0.00,Wunderground v.1.15,2013-04-18 09:42:00,
2013-04-18 04:48:00,32.3,31.3,29.89,North,5,5.0,7.0,96,0.00,,,0.00,Wunderground v.1.15,2013-04-18 09:48:00,
2013-04-18 04:53:00,32.2,31.2,29.90,North,10,1.0,7.0,96,0.00,,,0.00,Wunderground v.1.15,2013-04-18 09:53:00,
2013-04-18 04:58:00,32.2,31.2,29.90,NNW,345,4.0,10.0,96,0.00,,,0.00,Wunderground v.1.15,2013-04-18 09:58:00,
2013-04-18 05:03:00,32.1,31.1,29.90,WNW,282,3.0,9.0,96,0.00,,,0.00,Wunderground v.1.15,2013-04-18 10:03:00,
2013-04-18 05:08:00,32.1,31.1,29.89,North,355,6.0,11.0,96,0.00,,,0.00,Wunderground v.1.15,2013-04-18 10:08:00,
2013-04-18 05:14:00,32.1,31.1,29.89,NNW,340,1.0,5.0,96,0.00,,,0.00,Wunderground v.1.15,2013-04-18 10:14:00,
2013-04-18 05:19:00,32.1,31.1,29.89,North,9,7.0,11.0,96,0.00,,,0.00,Wunderground v.1.15,2013-04-18 10:19:00,
2013-04-18 05:24:00,32.1,31.1,29.89,North,5,4.0,5.0,96,0.00,,,0.00,Wunderground v.1.15,2013-04-18 10:24:00,
2013-04-18 05:29:00,32.1,31.1,29.89,NNW,346,5.0,10.0,96,0.00,,,0.00,Wunderground v.1.15,2013-04-18 10:29:00,
2013-04-18 05:34:00,32.1,31.1,29.88,NNE,19,6.0,6.0,96,0.00,,,0.00,Wunderground v.1.15,2013-04-18 10:34:00,
2013-04-18 05:39:00,32.1,31.1,29.87,NNE,13,7.0,10.0,96,0.00,,,0.00,Wunderground v.1.15,2013-04-18 10:39:00,
2013-04-18 05:44:00,32.0,31.0,29.86,NE,37,4.0,6.0,96,0.00,,,0.00,Wunderground v.1.15,2013-04-18 10:44:00,
2013-04-18 05:49:00,32.0,31.2,29.86,North,5,2.0,8.0,97,0.00,,,0.00,Wunderground v.1.15,2013-04-18 10:49:00,
2013-04-18 05:54:00,32.0,31.2,29.87,NE,36,7.0,7.0,97,0.00,,,0.00,Wunderground v.1.15,2013-04-18 10:54:00,
2013-04-18 06:00:00,32.0,31.2,29.87,NNW,342,8.0,9.0,97,0.00,,,0.00,Wunderground v.1.15,2013-04-18 11:00:00,
2013-04-18 06:05:00,32.0,31.2,29.87,WNW,302,1.0,12.0,97,0.00,,,0.00,Wunderground v.1.15,2013-04-18 11:05:00,
2013-04-18 06:10:00,32.0,31.2,29.86,NNW,332,3.0,12.0,97,0.00,,,0.00,Wunderground v.1.15,2013-04-18 11:10:00,
2013-04-18 06:15:00,32.0,31.2,29.86,NNW,346,3.0,11.0,97,0.00,,,0.00,Wunderground v.1.15,2013-04-18 11:15:00,
2013-04-18 06:20:00,32.0,31.2,29.84,NNW,327,6.0,11.0,97,0.00,,,0.00,Wunderground v.1.15,2013-04-18 11:20:00,
2013-04-18 06:25:00,32.0,31.2,29.83,NNW,334,3.0,9.0,97,0.00,,,0.00,Wunderground v.1.15,2013-04-18 11:25:00,
2013-04-18 06:30:00,32.0,31.2,29.82,North,5,4.0,11.0,97,0.00,,,0.00,Wunderground v.1.15,2013-04-18 11:30:00,
2013-04-18 06:36:00,32.0,31.2,29.81,NNE,26,2.0,13.0,97,0.00,,,0.00,Wunderground v.1.15,2013-04-18 11:36:00,
2013-04-18 06:42:00,32.1,31.3,29.83,North,355,8.0,8.0,97,0.00,,,0.00,Wunderground v.1.15,2013-04-18 11:42:00,
2013-04-18 06:47:00,32.2,31.2,29.85,North,355,7.0,14.0,96,0.00,,,0.00,Wunderground v.1.15,2013-04-18 11:47:00,
2013-04-18 06:52:00,32.2,31.2,29.84,NNE,33,1.0,8.0,96,0.00,,,0.00,Wunderground v.1.15,2013-04-18 11:52:00,
2013-04-18 06:57:00,32.3,31.3,29.82,NNW,333,8.0,12.0,96,0.00,,,0.00,Wunderground v.1.15,2013-04-18 11:57:00,
2013-04-18 07:02:00,32.3,31.3,29.82,North,5,6.0,15.0,96,0.00,,,0.00,Wunderground v.1.15,2013-04-18 12:02:00,
2013-04-18 07:07:00,32.3,31.3,29.82,NE,40,6.0,15.0,96,0.00,,,0.00,Wunderground v.1.15,2013-04-18 12:07:00,
2013-04-18 07:13:00,32.4,31.4,29.83,North,351,6.0,6.0,96,0.00,,,0.00,Wunderground v.1.15,2013-04-18 12:13:00,
2013-04-18 07:18:00,32.4,31.4,29.82,North,355,2.0,12.0,96,0.00,,,0.00,Wunderground v.1.15,2013-04-18 12:18:00,
2013-04-18 07:23:00,32.4,31.4,29.83,North,355,7.0,8.0,96,0.00,,,0.00,Wunderground v.1.15,2013-04-18 12:23:00,
2013-04-18 07:28:00,32.5,31.2,29.83,NNE,19,6.0,13.0,95,0.00,,,0.00,Wunderground v.1.15,2013-04-18 12:28:00,
2013-04-18 07:33:00,32.5,31.5,29.83,NNW,340,2.0,8.0,96,0.00,,,0.00,Wunderground v.1.15,2013-04-18 12:33:00,
2013-04-18 07:38:00,32.5,31.2,29.82,NE,36,5.0,12.0,95,0.00,,,0.00,Wunderground v.1.15,2013-04-18 12:38:00,
2013-04-18 07:43:00,32.5,31.2,29.81,NE,35,11.0,11.0,95,0.00,,,0.00,Wunderground v.1.15,2013-04-18 12:43:00,
2013-04-18 07:48:00,32.5,31.2,29.81,ENE,58,4.0,11.0,95,0.00,,,0.00,Wunderground v.1.15,2013-04-18 12:48:00,
2013-04-18 07:53:00,32.5,31.2,29.82,North,10,2.0,13.0,95,0.00,,,0.00,Wunderground v.1.15,2013-04-18 12:53:00,
2013-04-18 07:58:00,32.6,31.3,29.83,NNW,346,4.0,13.0,95,0.00,,,0.00,Wunderground v.1.15,2013-04-18 12:58:00,
2013-04-18 08:03:00,32.6,31.3,29.83,NE,35,7.0,13.0,95,0.00,,,0.00,Wunderground v.1.15,2013-04-18 13:03:00,
2013-04-18 08:09:00,32.7,31.4,29.83,North,9,2.0,13.0,95,0.00,,,0.00,Wunderground v.1.15,2013-04-18 13:09:00,
2013-04-18 08:14:00,32.7,31.4,29.83,NNE,22,0.0,6.0,95,0.00,,,0.00,Wunderground v.1.15,2013-04-18 13:14:00,
2013-04-18 08:19:00,32.7,31.2,29.83,NE,36,3.0,6.0,94,0.00,,,0.00,Wunderground v.1.15,2013-04-18 13:19:00,
2013-04-18 08:24:00,32.7,31.4,29.83,North,5,7.0,8.0,95,0.00,,,0.00,Wunderground v.1.15,2013-04-18 13:24:00,
2013-04-18 08:29:00,32.7,31.4,29.83,NE,36,7.0,9.0,95,0.00,,,0.00,Wunderground v.1.15,2013-04-18 13:29:00,
2013-04-18 08:34:00,32.8,31.5,29.82,NNE,30,3.0,8.0,95,0.00,,,0.00,Wunderground v.1.15,2013-04-18 13:34:00,
2013-04-18 08:39:00,32.8,31.5,29.82,North,350,6.0,8.0,95,0.00,,,0.00,Wunderground v.1.15,2013-04-18 13:39:00,
2013-04-18 08:44:00,32.8,31.5,29.81,NNE,17,6.0,10.0,95,0.00,,,0.00,Wunderground v.1.15,2013-04-18 13:44:00,
2013-04-18 08:50:00,32.8,31.5,29.80,NNE,27,11.0,11.0,95,0.00,,,0.00,Wunderground v.1.15,2013-04-18 13:50:00,
2013-04-18 08:55:00,32.9,31.6,29.80,NW,306,7.0,7.0,95,0.00,,,0.00,Wunderground v.1.15,2013-04-18 13:55:00,
2013-04-18 09:00:00,33.0,32.0,29.79,North,360,4.0,13.0,96,0.00,,,0.00,Wunderground v.1.15,2013-04-18 14:00:00,
2013-04-18 09:05:00,33.0,32.0,29.79,North,355,0.0,8.0,96,0.00,,,0.00,Wunderground v.1.15,2013-04-18 14:05:00,
2013-04-18 09:10:00,33.0,32.0,29.78,North,5,6.0,13.0,96,0.00,,,0.00,Wunderground v.1.15,2013-04-18 14:10:00,
2013-04-18 09:15:00,33.0,32.0,29.77,NE,38,1.0,12.0,96,0.00,,,0.00,Wunderground v.1.15,2013-04-18 14:15:00,
2013-04-18 09:20:00,33.1,32.1,29.77,NNW,342,4.0,12.0,96,0.00,,,0.00,Wunderground v.1.15,2013-04-18 14:20:00,
2013-04-18 09:25:00,33.1,32.1,29.76,NW,324,8.0,9.0,96,0.00,,,0.00,Wunderground v.1.15,2013-04-18 14:25:00,
2013-04-18 09:30:00,33.2,32.2,29.75,North,355,9.0,14.0,96,0.00,,,0.00,Wunderground v.1.15,2013-04-18 14:30:00,
2013-04-18 09:36:00,33.3,32.3,29.74,ENE,71,5.0,11.0,96,0.00,,,0.00,Wunderground v.1.15,2013-04-18 14:36:00,
2013-04-18 09:41:00,33.3,32.3,29.74,WNW,296,0.0,14.0,96,0.00,,,0.00,Wunderground v.1.15,2013-04-18 14:41:00,
2013-04-18 09:46:00,33.4,32.4,29.75,NE,43,4.0,11.0,96,0.00,,,0.00,Wunderground v.1.15,2013-04-18 14:46:00,
2013-04-18 09:51:00,33.4,32.4,29.75,NE,37,5.0,9.0,96,0.00,,,0.00,Wunderground v.1.15,2013-04-18 14:51:00,
2013-04-18 09:57:00,33.4,32.4,29.74,North,10,9.0,11.0,96,0.00,,,0.00,Wunderground v.1.15,2013-04-18 14:57:00,
2013-04-18 10:02:00,33.3,32.0,29.73,NNE,21,9.0,12.0,95,0.00,,,0.00,Wunderground v.1.15,2013-04-18 15:02:00,
2013-04-18 10:07:00,33.3,32.0,29.74,NNE,27,6.0,19.0,95,0.00,,,0.00,Wunderground v.1.15,2013-04-18 15:07:00,
2013-04-18 10:13:00,33.3,32.0,29.75,NE,36,5.0,7.0,95,0.00,,,0.00,Wunderground v.1.15,2013-04-18 15:13:00,
2013-04-18 10:18:00,33.3,32.0,29.75,NE,55,10.0,13.0,95,0.00,,,0.00,Wunderground v.1.15,2013-04-18 15:18:00,
2013-04-18 10:23:00,33.3,32.0,29.74,NE,46,6.0,14.0,95,0.00,,,0.00,Wunderground v.1.15,2013-04-18 15:23:00,
2013-04-18 10:28:00,33.4,32.1,29.74,NNE,25,2.0,14.0,95,0.00,,,0.00,Wunderground v.1.15,2013-04-18 15:28:00,
2013-04-18 10:33:00,33.5,32.2,29.73,ENE,65,3.0,12.0,95,0.00,,,0.00,Wunderground v.1.15,2013-04-18 15:33:00,
2013-04-18 10:38:00,33.6,32.3,29.73,NNE,23,5.0,12.0,95,0.00,,,0.01,Wunderground v.1.15,2013-04-18 15:38:00,
2013-04-18 10:43:00,33.6,32.1,29.72,East,89,3.0,8.0,94,0.00,,,0.01,Wunderground v.1.15,2013-04-18 15:43:00,
2013-04-18 10:48:00,33.7,32.4,29.72,NNE,29,5.0,11.0,95,0.00,,,0.01,Wunderground v.1.15,2013-04-18 15:48:00,
2013-04-18 10:53:00,33.7,32.4,29.73,NE,46,1.0,14.0,95,0.00,,,0.01,Wunderground v.1.15,2013-04-18 15:53:00,
2013-04-18 10:58:00,33.7,32.4,29.73,NE,53,12.0,14.0,95,0.00,,,0.01,Wunderground v.1.15,2013-04-18 15:58:00,
2013-04-18 11:04:00,33.6,32.3,29.74,ENE,58,0.0,6.0,95,0.00,,,0.01,Wunderground v.1.15,2013-04-18 16:04:00,
2013-04-18 11:09:00,33.6,32.1,29.75,NNE,19,5.0,6.0,94,0.00,,,0.01,Wunderground v.1.15,2013-04-18 16:09:00,
2013-04-18 11:14:00,33.5,32.2,29.75,NE,49,3.0,8.0,95,0.00,,,0.01,Wunderground v.1.15,2013-04-18 16:14:00,
2013-04-18 11:19:00,33.6,32.1,29.76,NNE,15,4.0,8.0,94,0.00,,,0.01,Wunderground v.1.15,2013-04-18 16:19:00,
2013-04-18 11:24:00,33.7,32.4,29.75,NNE,14,5.0,10.0,95,0.00,,,0.01,Wunderground v.1.15,2013-04-18 16:24:00,
2013-04-18 11:29:00,33.7,32.4,29.74,NNE,18,4.0,10.0,95,0.00,,,0.01,Wunderground v.1.15,2013-04-18 16:29:00,
2013-04-18 11:34:00,33.7,32.4,29.73,NE,46,11.0,14.0,95,0.00,,,0.01,Wunderground v.1.15,2013-04-18 16:34:00,
2013-04-18 11:39:00,33.8,32.5,29.74,North,355,1.0,14.0,95,0.00,,,0.02,Wunderground v.1.15,2013-04-18 16:39:00,
2013-04-18 11:44:00,33.9,32.6,29.74,NNE,31,2.0,10.0,95,0.00,,,0.02,Wunderground v.1.15,2013-04-18 16:44:00,
2013-04-18 11:50:00,33.9,32.6,29.73,North,360,7.0,11.0,95,0.00,,,0.02,Wunderground v.1.15,2013-04-18 16:50:00,
2013-04-18 11:55:00,34.0,33.0,29.73,NE,50,6.0,7.0,96,0.00,,,0.02,Wunderground v.1.15,2013-04-18 16:55:00,
2013-04-18 12:00:00,34.0,33.0,29.72,WNW,300,6.0,9.0,96,0.00,,,0.02,Wunderground v.1.15,2013-04-18 17:00:00,
2013-04-18 12:05:00,34.0,33.0,29.73,NNE,19,3.0,11.0,96,0.00,,,0.02,Wunderground v.1.15,2013-04-18 17:05:00,
2013-04-18 12:10:00,33.8,32.8,29.74,North,355,2.0,11.0,96,0.00,,,0.02,Wunderground v.1.15,2013-04-18 17:10:00,
2013-04-18 12:16:00,33.7,32.7,29.74,North,355,4.0,9.0,96,0.00,,,0.02,Wunderground v.1.15,2013-04-18 17:16:00,
2013-04-18 12:21:00,33.7,32.7,29.73,NNE,14,7.0,7.0,96,0.00,,,0.02,Wunderground v.1.15,2013-04-18 17:21:00,
2013-04-18 12:27:00,33.6,32.6,29.71,NNE,18,1.0,12.0,96,0.00,,,0.02,Wunderground v.1.15,2013-04-18 17:27:00,
2013-04-18 12:32:00,33.7,32.7,29.70,NNE,25,5.0,12.0,96,0.00,,,0.02,Wunderground v.1.15,2013-04-18 17:32:00,
2013-04-18 12:37:00,33.8,32.8,29.69,North,349,6.0,12.0,96,0.00,,,0.02,Wunderground v.1.15,2013-04-18 17:37:00,
2013-04-18 12:42:00,33.8,32.8,29.71,NNE,12,4.0,5.0,96,0.00,,,0.02,Wunderground v.1.15,2013-04-18 17:42:00,
2013-04-18 12:47:00,33.7,32.7,29.72,NNE,18,6.0,11.0,96,0.00,,,0.02,Wunderground v.1.15,2013-04-18 17:47:00,
2013-04-18 12:52:00,33.7,32.7,29.73,North,5,3.0,7.0,96,0.00,,,0.02,Wunderground v.1.15,2013-04-18 17:52:00,
2013-04-18 12:57:00,33.7,32.7,29.72,NE,40,3.0,14.0,96,0.00,,,0.02,Wunderground v.1.15,2013-04-18 17:57:00,
2013-04-18 13:03:00,33.7,32.7,29.71,NNE,22,5.0,10.0,96,0.00,,,0.02,Wunderground v.1.15,2013-04-18 18:03:00,
2013-04-18 13:08:00,33.6,32.6,29.70,NE,49,2.0,12.0,96,0.00,,,0.02,Wunderground v.1.15,2013-04-18 18:08:00,
2013-04-18 13:13:00,33.5,32.5,29.70,North,360,5.0,5.0,96,0.00,,,0.02,Wunderground v.1.15,2013-04-18 18:13:00,
2013-04-18 13:18:00,33.5,32.5,29.69,NNE,24,5.0,9.0,96,0.00,,,0.02,Wunderground v.1.15,2013-04-18 18:18:00,
2013-04-18 13:23:00,33.5,32.5,29.71,NNW,327,5.0,8.0,96,0.00,,,0.02,Wunderground v.1.15,2013-04-18 18:23:00,
2013-04-18 13:28:00,33.5,32.7,29.70,North,5,4.0,8.0,97,0.00,,,0.02,Wunderground v.1.15,2013-04-18 18:28:00,
2013-04-18 13:33:00,33.7,32.9,29.70,NNW,335,3.0,11.0,97,0.00,,,0.02,Wunderground v.1.15,2013-04-18 18:33:00,
2013-04-18 13:38:00,33.7,32.9,29.70,North,355,8.0,11.0,97,0.00,,,0.03,Wunderground v.1.15,2013-04-18 18:38:00,
2013-04-18 13:43:00,33.7,32.9,29.70,NNW,344,1.0,9.0,97,0.00,,,0.03,Wunderground v.1.15,2013-04-18 18:43:00,
2013-04-18 13:48:00,33.6,32.8,29.69,NNE,16,7.0,10.0,97,0.00,,,0.03,Wunderground v.1.15,2013-04-18 18:48:00,
2013-04-18 13:53:00,33.7,32.9,29.68,North,355,0.0,6.0,97,0.00,,,0.03,Wunderground v.1.15,2013-04-18 18:53:00,
2013-04-18 13:58:00,33.7,32.9,29.67,North,5,3.0,12.0,97,0.00,,,0.03,Wunderground v.1.15,2013-04-18 18:58:00,
2013-04-18 14:03:00,33.6,32.8,29.66,North,351,1.0,10.0,97,0.00,,,0.03,Wunderground v.1.15,2013-04-18 19:03:00,
2013-04-18 14:09:00,33.5,32.7,29.66,NW,314,3.0,10.0,97,0.00,,,0.03,Wunderground v.1.15,2013-04-18 19:09:00,
2013-04-18 14:14:00,33.6,32.8,29.68,North,360,8.0,9.0,97,0.00,,,0.03,Wunderground v.1.15,2013-04-18 19:14:00,
2013-04-18 14:19:00,33.6,32.8,29.70,NW,323,6.0,9.0,97,0.00,,,0.03,Wunderground v.1.15,2013-04-18 19:19:00,
2013-04-18 14:24:00,33.6,32.8,29.68,NNW,346,8.0,10.0,97,0.00,,,0.03,Wunderground v.1.15,2013-04-18 19:24:00,
2013-04-18 14:29:00,33.7,32.9,29.67,North,5,3.0,10.0,97,0.00,,,0.03,Wunderground v.1.15,2013-04-18 19:29:00,
2013-04-18 14:34:00,33.8,33.0,29.68,North,355,9.0,9.0,97,0.00,,,0.03,Wunderground v.1.15,2013-04-18 19:34:00,
2013-04-18 14:39:00,33.8,33.0,29.68,North,360,3.0,10.0,97,0.00,,,0.03,Wunderground v.1.15,2013-04-18 19:39:00,
2013-04-18 14:45:00,33.8,33.0,29.67,NNE,32,6.0,10.0,97,0.00,,,0.03,Wunderground v.1.15,2013-04-18 19:45:00,
2013-04-18 14:50:00,33.7,32.9,29.65,NE,53,5.0,10.0,97,0.00,,,0.03,Wunderground v.1.15,2013-04-18 19:50:00,
2013-04-18 14:55:00,33.6,32.8,29.65,North,5,3.0,11.0,97,0.00,,,0.03,Wunderground v.1.15,2013-04-18 19:55:00,
2013-04-18 15:00:00,33.5,32.7,29.66,North,360,2.0,11.0,97,0.00,,,0.03,Wunderground v.1.15,2013-04-18 20:00:00,
2013-04-18 15:05:00,33.5,32.7,29.67,North,360,6.0,6.0,97,0.00,,,0.03,Wunderground v.1.15,2013-04-18 20:05:00,
2013-04-18 15:10:00,33.5,32.7,29.67,NNW,343,3.0,12.0,97,0.00,,,0.03,Wunderground v.1.15,2013-04-18 20:10:00,
2013-04-18 15:15:00,33.4,32.6,29.66,North,355,2.0,11.0,97,0.00,,,0.03,Wunderground v.1.15,2013-04-18 20:15:00,
2013-04-18 15:20:00,33.4,32.6,29.65,NNE,22,7.0,12.0,97,0.00,,,0.03,Wunderground v.1.15,2013-04-18 20:20:00,
2013-04-18 15:25:00,33.4,32.6,29.66,NNE,30,0.0,12.0,97,0.00,,,0.03,Wunderground v.1.15,2013-04-18 20:25:00,
2013-04-18 15:30:00,33.4,32.9,29.66,North,360,0.0,12.0,98,0.00,,,0.04,Wunderground v.1.15,2013-04-18 20:30:00,
2013-04-18 15:35:00,33.4,32.9,29.64,NE,56,0.0,1.0,98,0.00,,,0.04,Wunderground v.1.15,2013-04-18 20:35:00,
2013-04-18 15:40:00,33.4,32.9,29.64,NNE,28,0.0,1.0,98,0.00,,,0.04,Wunderground v.1.15,2013-04-18 20:40:00,
2013-04-18 15:45:00,33.4,32.9,29.64,West,273,0.0,0.0,98,0.00,,,0.04,Wunderground v.1.15,2013-04-18 20:45:00,
2013-04-18 15:50:00,33.4,32.9,29.64,NNE,20,0.0,0.0,98,0.00,,,0.04,Wunderground v.1.15,2013-04-18 20:50:00,
2013-04-18 15:56:00,33.3,32.8,29.64,North,355,0.0,0.0,98,0.00,,,0.04,Wunderground v.1.15,2013-04-18 20:56:00,
2013-04-18 16:01:00,33.4,32.9,29.64,NNE,22,0.0,0.0,98,0.00,,,0.04,Wunderground v.1.15,2013-04-18 21:01:00,
2013-04-18 16:07:00,33.4,32.9,29.64,NNW,336,0.0,0.0,98,0.00,,,0.04,Wunderground v.1.15,2013-04-18 21:07:00,
2013-04-18 16:12:00,33.4,32.9,29.65,NNW,338,0.0,0.0,98,0.00,,,0.04,Wunderground v.1.15,2013-04-18 21:12:00,
2013-04-18 16:17:00,33.4,32.9,29.65,NNE,25,0.0,0.0,98,0.00,,,0.04,Wunderground v.1.15,2013-04-18 21:17:00,
2013-04-18 16:22:00,33.4,32.9,29.65,North,355,6.0,9.0,98,0.00,,,0.04,Wunderground v.1.15,2013-04-18 21:22:00,
2013-04-18 16:27:00,33.3,32.8,29.64,North,360,5.0,12.0,98,0.00,,,0.04,Wunderground v.1.15,2013-04-18 21:27:00,
2013-04-18 16:33:00,33.2,32.7,29.63,NNE,13,5.0,13.0,98,0.00,,,0.04,Wunderground v.1.15,2013-04-18 21:33:00,
2013-04-18 16:38:00,33.2,32.7,29.64,NW,325,3.0,13.0,98,0.00,,,0.04,Wunderground v.1.15,2013-04-18 21:38:00,
2013-04-18 16:43:00,33.2,32.7,29.63,North,5,6.0,16.0,98,0.00,,,0.04,Wunderground v.1.15,2013-04-18 21:43:00,
2013-04-18 16:48:00,33.2,32.7,29.63,NW,319,2.0,16.0,98,0.00,,,0.04,Wunderground v.1.15,2013-04-18 21:48:00,
2013-04-18 16:53:00,33.3,32.8,29.62,NE,38,9.0,9.0,98,0.00,,,0.04,Wunderground v.1.15,2013-04-18 21:53:00,
2013-04-18 16:58:00,33.3,32.8,29.62,North,5,3.0,12.0,98,0.00,,,0.04,Wunderground v.1.15,2013-04-18 21:58:00,
2013-04-18 17:03:00,33.3,32.8,29.62,NNW,342,3.0,10.0,98,0.00,,,0.04,Wunderground v.1.15,2013-04-18 22:03:00,
2013-04-18 17:08:00,33.3,32.8,29.63,North,11,6.0,10.0,98,0.00,,,0.04,Wunderground v.1.15,2013-04-18 22:08:00,
2013-04-18 17:13:00,33.4,32.9,29.64,WNW,287,2.0,7.0,98,0.00,,,0.04,Wunderground v.1.15,2013-04-18 22:13:00,
2013-04-18 17:19:00,33.4,32.9,29.63,North,5,8.0,11.0,98,0.00,,,0.04,Wunderground v.1.15,2013-04-18 22:19:00,
2013-04-18 17:24:00,33.3,32.8,29.60,NNE,21,2.0,17.0,98,0.00,,,0.04,Wunderground v.1.15,2013-04-18 22:24:00,
2013-04-18 17:29:00,33.3,32.8,29.61,NNE,17,4.0,17.0,98,0.00,,,0.04,Wunderground v.1.15,2013-04-18 22:29:00,
2013-04-18 17:34:00,33.3,32.8,29.61,NNW,341,1.0,13.0,98,0.00,,,0.04,Wunderground v.1.15,2013-04-18 22:34:00,
2013-04-18 17:39:00,33.3,32.8,29.62,North,5,14.0,14.0,98,0.00,,,0.04,Wunderground v.1.15,2013-04-18 22:39:00,
2013-04-18 17:44:00,33.3,32.8,29.61,North,351,0.0,15.0,98,0.00,,,0.04,Wunderground v.1.15,2013-04-18 22:44:00,
2013-04-18 17:49:00,33.2,32.7,29.61,NNW,346,0.0,15.0,98,0.00,,,0.04,Wunderground v.1.15,2013-04-18 22:49:00,
2013-04-18 17:54:00,33.2,32.7,29.61,NNW,338,0.0,3.0,98,0.00,,,0.04,Wunderground v.1.15,2013-04-18 22:54:00,
2013-04-18 18:00:00,33.2,32.7,29.61,NW,305,0.0,3.0,98,0.00,,,0.05,Wunderground v.1.15,2013-04-18 23:00:00,
2013-04-18 18:05:00,33.2,32.7,29.61,NNW,346,0.0,0.0,98,0.00,,,0.05,Wunderground v.1.15,2013-04-18 23:05:00,
2013-04-18 18:10:00,33.2,32.7,29.60,NNE,17,0.0,0.0,98,0.00,,,0.05,Wunderground v.1.15,2013-04-18 23:10:00,
2013-04-18 18:15:00,33.1,32.6,29.60,NNW,342,0.0,0.0,98,0.00,,,0.05,Wunderground v.1.15,2013-04-18 23:15:00,
2013-04-18 18:20:00,33.1,32.6,29.60,WNW,288,0.0,0.0,98,0.00,,,0.05,Wunderground v.1.15,2013-04-18 23:20:00,
2013-04-18 18:25:00,33.1,32.6,29.61,NNW,338,0.0,0.0,98,0.00,,,0.05,Wunderground v.1.15,2013-04-18 23:25:00,
2013-04-18 18:30:00,33.1,32.6,29.61,North,351,0.0,0.0,98,0.00,,,0.05,Wunderground v.1.15,2013-04-18 23:30:00,
2013-04-18 18:35:00,33.1,32.6,29.60,North,5,0.0,0.0,98,0.00,,,0.05,Wunderground v.1.15,2013-04-18 23:35:00,
2013-04-18 18:41:00,33.0,32.5,29.59,NW,313,0.0,0.0,98,0.00,,,0.05,Wunderground v.1.15,2013-04-18 23:41:00,
2013-04-18 18:46:00,33.0,32.5,29.59,NNW,339,0.0,0.0,98,0.00,,,0.05,Wunderground v.1.15,2013-04-18 23:46:00,
2013-04-18 18:51:00,32.9,32.4,29.60,NW,309,0.0,0.0,98,0.00,,,0.05,Wunderground v.1.15,2013-04-18 23:51:00,
2013-04-18 18:56:00,32.9,32.4,29.61,NW,320,0.0,0.0,98,0.00,,,0.05,Wunderground v.1.15,2013-04-18 23:56:00,
2013-04-18 19:01:00,32.9,32.4,29.60,NNW,343,0.0,0.0,98,0.00,,,0.05,Wunderground v.1.15,2013-04-19 00:01:00,
2013-04-18 19:06:00,32.8,32.3,29.60,NNW,345,0.0,0.0,98,0.00,,,0.05,Wunderground v.1.15,2013-04-19 00:06:00,
2013-04-18 19:11:00,32.8,32.3,29.60,WNW,299,0.0,0.0,98,0.00,,,0.05,Wunderground v.1.15,2013-04-19 00:11:00,
2013-04-18 19:16:00,32.8,32.3,29.60,North,355,0.0,0.0,98,0.00,,,0.05,Wunderground v.1.15,2013-04-19 00:16:00,
2013-04-18 19:22:00,32.7,32.2,29.60,NNE,22,0.0,0.0,98,0.00,,,0.05,Wunderground v.1.15,2013-04-19 00:22:00,
2013-04-18 19:27:00,32.6,32.1,29.60,NNW,336,0.0,0.0,98,0.00,,,0.05,Wunderground v.1.15,2013-04-19 00:27:00,
2013-04-18 19:32:00,32.6,32.1,29.61,NW,321,0.0,0.0,98,0.00,,,0.05,Wunderground v.1.15,2013-04-19 00:32:00,
2013-04-18 19:37:00,32.6,32.1,29.61,NNW,336,0.0,0.0,98,0.00,,,0.05,Wunderground v.1.15,2013-04-19 00:37:00,
2013-04-18 19:42:00,32.6,32.1,29.61,NW,311,0.0,0.0,98,0.00,,,0.05,Wunderground v.1.15,2013-04-19 00:42:00,
2013-04-18 19:47:00,32.5,32.0,29.61,North,355,0.0,0.0,98,0.00,,,0.05,Wunderground v.1.15,2013-04-19 00:47:00,
2013-04-18 19:52:00,32.4,31.9,29.61,NNW,327,0.0,0.0,98,0.00,,,0.05,Wunderground v.1.15,2013-04-19 00:52:00,
2013-04-18 19:57:00,32.4,31.9,29.61,NNW,335,0.0,0.0,98,0.00,,,0.05,Wunderground v.1.15,2013-04-19 00:57:00,
2013-04-18 20:03:00,32.3,31.8,29.61,North,355,0.0,0.0,98,0.00,,,0.05,Wunderground v.1.15,2013-04-19 01:03:00,
2013-04-18 20:08:00,32.2,31.7,29.61,NW,307,0.0,0.0,98,0.00,,,0.05,Wunderground v.1.15,2013-04-19 01:08:00,
2013-04-18 20:13:00,32.1,31.6,29.61,NW,318,0.0,0.0,98,0.00,,,0.05,Wunderground v.1.15,2013-04-19 01:13:00,
2013-04-18 20:18:00,32.0,31.5,29.62,NW,320,0.0,0.0,98,0.00,,,0.05,Wunderground v.1.15,2013-04-19 01:18:00,
2013-04-18 20:23:00,32.0,31.5,29.62,NW,313,0.0,0.0,98,0.00,,,0.05,Wunderground v.1.15,2013-04-19 01:23:00,
2013-04-18 20:29:00,31.9,31.4,29.62,NNW,344,0.0,0.0,98,0.00,,,0.05,Wunderground v.1.15,2013-04-19 01:29:00,
2013-04-18 20:34:00,31.9,31.4,29.62,NNW,348,0.0,0.0,98,0.00,,,0.05,Wunderground v.1.15,2013-04-19 01:34:00,
2013-04-18 20:39:00,31.9,31.4,29.62,North,355,0.0,0.0,98,0.00,,,0.05,Wunderground v.1.15,2013-04-19 01:39:00,
2013-04-18 20:44:00,31.9,31.4,29.62,NW,321,0.0,0.0,98,0.00,,,0.05,Wunderground v.1.15,2013-04-19 01:44:00,
2013-04-18 20:49:00,31.9,31.4,29.62,NNW,346,0.0,0.0,98,0.00,,,0.05,Wunderground v.1.15,2013-04-19 01:49:00,
2013-04-18 20:54:00,32.0,31.5,29.62,WNW,294,0.0,0.0,98,0.00,,,0.05,Wunderground v.1.15,2013-04-19 01:54:00,
2013-04-18 20:59:00,31.9,31.4,29.62,NW,317,0.0,0.0,98,0.00,,,0.05,Wunderground v.1.15,2013-04-19 01:59:00,
2013-04-18 21:04:00,32.0,31.5,29.62,NNW,338,0.0,0.0,98,0.00,,,0.05,Wunderground v.1.15,2013-04-19 02:04:00,
2013-04-18 21:09:00,32.0,31.5,29.62,NW,314,0.0,0.0,98,0.00,,,0.05,Wunderground v.1.15,2013-04-19 02:09:00,
2013-04-18 21:14:00,32.0,31.5,29.63,NW,306,0.0,0.0,98,0.00,,,0.05,Wunderground v.1.15,2013-04-19 02:14:00,
2013-04-18 21:19:00,32.0,31.5,29.63,NNW,331,0.0,0.0,98,0.00,,,0.05,Wunderground v.1.15,2013-04-19 02:19:00,
2013-04-18 21:25:00,32.0,31.5,29.63,NW,319,0.0,0.0,98,0.00,,,0.05,Wunderground v.1.15,2013-04-19 02:25:00,
2013-04-18 21:30:00,32.0,31.5,29.63,WNW,296,0.0,0.0,98,0.00,,,0.05,Wunderground v.1.15,2013-04-19 02:30:00,
2013-04-18 21:35:00,32.0,31.5,29.63,NNW,346,0.0,0.0,98,0.00,,,0.05,Wunderground v.1.15,2013-04-19 02:35:00,
2013-04-18 21:40:00,32.0,31.5,29.63,NW,325,0.0,0.0,98,0.00,,,0.05,Wunderground v.1.15,2013-04-19 02:40:00,
2013-04-18 21:45:00,32.1,31.6,29.63,NW,316,0.0,0.0,98,0.00,,,0.05,Wunderground v.1.15,2013-04-19 02:45:00,
2013-04-18 21:50:00,32.1,31.6,29.63,NW,314,0.0,0.0,98,0.00,,,0.05,Wunderground v.1.15,2013-04-19 02:50:00,
2013-04-18 21:56:00,32.1,31.6,29.62,North,349,0.0,0.0,98,0.00,,,0.05,Wunderground v.1.15,2013-04-19 02:56:00,
2013-04-18 22:01:00,32.1,31.6,29.62,NW,304,0.0,0.0,98,0.00,,,0.05,Wunderground v.1.15,2013-04-19 03:01:00,
2013-04-18 22:06:00,32.1,31.6,29.62,WNW,282,0.0,0.0,98,0.00,,,0.05,Wunderground v.1.15,2013-04-19 03:06:00,
2013-04-18 22:11:00,32.1,31.6,29.62,NNW,342,0.0,0.0,98,0.00,,,0.05,Wunderground v.1.15,2013-04-19 03:11:00,
2013-04-18 22:16:00,32.1,31.6,29.62,North,360,0.0,0.0,98,0.00,,,0.05,Wunderground v.1.15,2013-04-19 03:16:00,
2013-04-18 22:21:00,32.1,31.6,29.61,NW,315,0.0,0.0,98,0.00,,,0.05,Wunderground v.1.15,2013-04-19 03:21:00,
2013-04-18 22:26:00,32.1,31.6,29.61,NW,315,0.0,0.0,98,0.00,,,0.05,Wunderground v.1.15,2013-04-19 03:26:00,
2013-04-18 22:31:00,32.1,31.6,29.61,WNW,296,0.0,0.0,98,0.00,,,0.05,Wunderground v.1.15,2013-04-19 03:31:00,
2013-04-18 22:36:00,32.0,31.5,29.61,NNW,334,0.0,0.0,98,0.00,,,0.05,Wunderground v.1.15,2013-04-19 03:36:00,
2013-04-18 22:41:00,32.0,31.5,29.60,NW,308,0.0,0.0,98,0.00,,,0.05,Wunderground v.1.15,2013-04-19 03:41:00,
2013-04-18 22:47:00,32.0,31.5,29.61,WNW,303,0.0,0.0,98,0.00,,,0.05,Wunderground v.1.15,2013-04-19 03:47:00,
2013-04-18 22:52:00,32.0,31.5,29.60,NNW,338,0.0,0.0,98,0.00,,,0.05,Wunderground v.1.15,2013-04-19 03:52:00,
2013-04-18 22:57:00,31.9,31.4,29.60,NW,317,0.0,0.0,98,0.00,,,0.05,Wunderground v.1.15,2013-04-19 03:57:00,
2013-04-18 23:01:00,31.9,31.4,29.60,NW,315,0.0,0.0,98,0.00,,,0.05,Wunderground v.1.15,2013-04-19 04:01:00,
2013-04-18 23:02:00,31.9,31.4,29.60,NNW,340,0.0,0.0,98,0.00,,,0.05,Wunderground v.1.15,2013-04-19 04:02:00,
2013-04-18 23:03:00,31.9,31.4,29.60,NW,310,0.0,0.0,98,0.00,,,0.05,Wunderground v.1.15,2013-04-19 04:03:00,
2013-04-18 23:08:00,31.9,31.4,29.59,WNW,300,0.0,0.0,98,0.00,,,0.05,Wunderground v.1.15,2013-04-19 04:08:00,
2013-04-18 23:13:00,31.9,31.4,29.60,NW,319,0.0,0.0,98,0.00,,,0.05,Wunderground v.1.15,2013-04-19 04:13:00,
2013-04-18 23:18:00,31.9,31.4,29.59,West,279,0.0,0.0,98,0.00,,,0.05,Wunderground v.1.15,2013-04-19 04:18:00,
2013-04-18 23:23:00,31.9,31.4,29.59,WNW,302,0.0,0.0,98,0.00,,,0.05,Wunderground v.1.15,2013-04-19 04:23:00,
2013-04-18 23:28:00,31.9,31.4,29.58,NW,313,0.0,0.0,98,0.00,,,0.05,Wunderground v.1.15,2013-04-19 04:28:00,
2013-04-18 23:33:00,31.9,31.4,29.58,NW,315,0.0,0.0,98,0.00,,,0.05,Wunderground v.1.15,2013-04-19 04:33:00,
2013-04-18 23:38:00,31.8,31.3,29.58,NW,308,0.0,0.0,98,0.00,,,0.05,Wunderground v.1.15,2013-04-19 04:38:00,
2013-04-18 23:43:00,31.8,31.3,29.58,WNW,296,0.0,0.0,98,0.00,,,0.05,Wunderground v.1.15,2013-04-19 04:43:00,
2013-04-18 23:48:00,31.8,31.3,29.58,WNW,294,0.0,0.0,98,0.00,,,0.05,Wunderground v.1.15,2013-04-19 04:48:00,
2013-04-18 23:53:00,31.8,31.3,29.58,NNW,331,0.0,0.0,98,0.00,,,0.05,Wunderground v.1.15,2013-04-19 04:53:00,
2013-04-18 23:59:00,31.7,31.2,29.57,NW,309,0.0,0.0,98,0.00,,,0.05,Wunderground v.1.15,2013-04-19 04:59:00,